Location: Dziadowski
(50.3833°N, 20.0333°E)
Time: 18:19:45
(UTC+00:00)

Lacrosse 5 rocket - Visible Passes

Search period start: 11 April 2026 00:00
Search period end: 21 April 2026 00:00
Orbit: 391 x 478 km, 57.0° (Epoch: 11 April)

Date Brightness Start Highest point End Pass type
(mag) Time Alt. Az. Time Alt. Az. Time Alt. Az.
11 Apr 2.0 18:22:36 10° S 18:25:04 20° SE 18:27:17 11° E visible
11 Apr 1.5 19:58:14 10° WSW 20:00:41 46° W 20:00:41 46° W visible
12 Apr 0.5 19:15:56 10° SW 19:19:08 89° SE 19:21:17 19° ENE visible
12 Apr 3.3 20:53:14 10° WNW 20:54:38 20° NW 20:54:38 20° NW visible
13 Apr 0.6 18:33:42 10° SW 18:36:51 59° SE 18:40:00 10° ENE visible
13 Apr 2.4 20:10:42 10° W 20:13:38 33° NNW 20:14:39 26° NNE visible
14 Apr 1.9 19:28:09 10° W 19:31:13 40° NNW 19:34:15 10° NE visible
14 Apr 3.2 21:05:44 10° WNW 21:07:35 21° NNW 21:07:35 21° NNW visible
15 Apr 1.4 18:45:38 10° WSW 18:48:47 54° NNW 18:51:55 10° NE visible
15 Apr 2.8 20:23:11 10° WNW 20:25:54 24° N 20:26:56 21° NNE visible
16 Apr 2.7 19:40:35 10° WNW 19:43:21 26° N 19:46:07 10° NE visible
16 Apr 3.3 21:17:50 10° NW 21:19:24 21° NNW 21:19:24 21° NNW visible
17 Apr 2.5 18:57:55 10° W 19:00:48 30° NNW 19:03:41 10° NE visible
17 Apr 2.7 20:35:22 10° NW 20:38:04 25° N 20:38:27 24° NNE visible
18 Apr 2.2 18:15:14 10° W 18:18:15 36° NNW 18:21:15 10° NE visible
18 Apr 2.8 19:52:48 10° NW 19:55:28 24° N 19:57:25 14° NE visible
18 Apr 3.3 21:29:35 10° NW 21:30:41 19° NW 21:30:41 19° NW visible
19 Apr 2.8 19:10:09 10° WNW 19:12:51 24° N 19:15:31 10° NE visible
19 Apr 2.3 20:47:07 10° NW 20:49:35 32° N 20:49:35 32° N visible
20 Apr 2.7 18:27:26 10° WNW 18:30:11 25° N 18:32:55 10° NE visible
20 Apr 2.3 20:04:36 10° NW 20:07:27 29° NNE 20:08:27 24° NE visible
20 Apr 3.6 21:41:09 10° WNW 21:41:42 14° WNW 21:41:42 14° WNW visible
